Location: Eaton
(41.3139°N, 82.0207°W)
Time: 12:21:25
(UTC+00:00)

Cosmos 2151 Rocket - Pass Details

Date: 17 June 2021
Orbit: 617 x 642 km, 82.5° (Epoch: 30 July)

Event Time Altitude Azimuth Distance (km) Brightness Sun altitude
Rises 01:54:39 0° 347° (NNW) 2,905 8.0 -8.5°
Reaches altitude 10° 01:56:55 10° 344° (NNW) 1,992 7.2 -8.8°
Maximum altitude 02:01:14 57° 266° (W) 730 4.2 -9.4°
Drops below altitude 10° 02:05:31 10° 188° (S) 1,974 5.8 -10.0°
Enters shadow 02:07:24 - 184° (S) 2,735 6.5 -10.2°
